Regional Weather Roundup
Issued by NWS

Home | Current Version | Previous Version | Text Only | Print | Product List | Glossary Off
Versions: 1 2 3 4 5 6 7 8 9 10 11 12 13 14 15 16 17 18 19 20 21 22 23 24 25 26 27 28 29 30 31 32 33 34 35 36 37 38 39 40 41 42 43 44 45 46 47 48 49 50

117
ASUS43 KOAX 200302
RWRNE

WEATHER ROUNDUP FOR NEBRASKA
NATIONAL WEATHER SERVICE OMAHA NE
900 PM CST SUN FEB 19 2017

NOTES: SATELLITE DATA IS BEING USED TO AUGMENT CLOUD COVER ABOVE
       12000 FEET.
       "FAIR" INDICATES FEW OR NO CLOUDS BELOW 12,000 FEET WITH NO
       SIGNIFICANT WEATHER AND/OR OBSTRUCTIONS TO VISIBILITY.

  * THESE STATIONS DO NOT REPORT WEATHER SUCH AS RAIN...SNOW OR FOG.

NEZ001>004-019>022-054>056-200400-
NEBRASKA PANHANDLE

CITY           SKY/WX    TMP DP  RH WIND       PRES   REMARKS
SCOTTSBLUFF    CLOUDY    51  33  50 NW9       29.61R
ALLIANCE       CLOUDY    52  37  56 S15       29.57F
CHADRON        CLOUDY    49  38  65 S6        29.58R
KIMBALL        CLOUDY    53  35  50 NW10      29.64R
SIDNEY         CLOUDY    54  29  38 S13       29.61R
$$

NEZ057>060-069>072-079>082-200400-
SOUTHWEST NEBRASKA

CITY           SKY/WX    TMP DP  RH WIND       PRES   REMARKS
NORTH PLATTE   MOCLDY    62  48  60 S14G23    29.62F
IMPERIAL       CLOUDY    63  27  25 S24G33    29.58F
LEXINGTON      CLOUDY    58  48  70 S18G24    29.70R
MCCOOK         PTCLDY    61  50  67 S17G28    29.68R
OGALLALA       CLOUDY    63  35  36 S17G23    29.60R
$$

NEZ005>010-023>029-035>040-094-200400-
NORTH CENTRAL NEBRASKA

CITY           SKY/WX    TMP DP  RH WIND       PRES   REMARKS
VALENTINE      CLOUDY    59  42  53 S8        29.61R
AINSWORTH      CLOUDY    58  48  67 S15       29.62S
BROKEN BOW     PTCLDY    58  50  75 S17G25    29.68R
O`NEILL        CLOUDY    58  50  73 S17       29.69R
ORD            MOCLDY    56  47  71 S15       29.69S
THEDFORD       PTCLDY    59  47  64 SE13      29.63S
$$

NEZ041-046>049-061>064-073>077-083>087-200400-
SOUTH CENTRAL NEBRASKA

CITY           SKY/WX    TMP DP  RH WIND       PRES   REMARKS
GRAND ISLAND   MOCLDY    54  50  86 S17G25    29.76S
AURORA         PTCLDY    55  50  86 S17G23    29.77R
HASTINGS       PTCLDY    56  50  80 S18G25    29.77R
HEBRON         MOCLDY    56  51  82 S10       29.81R
HOLDREGE       PTCLDY    56  49  77 S20G28    29.73R
KEARNEY *      PTCLDY    55  46  71 S22G31    29.74R
YORK           PTCLDY    55  50  82 S14G21    29.79R
$$

NEZ011>018-030>034-042>045-200400-
NORTHEAST NEBRASKA

CITY           SKY/WX    TMP DP  RH WIND       PRES   REMARKS
NORFOLK        CLOUDY    57  49  74 S18G28    29.74R
ALBION         CLOUDY    56  49  78 S16       29.73S
BLAIR          PTCLDY    59  53  79 S17       29.82R
FREMONT        MOCLDY    58  51  78 S15G22    29.81S
TEKAMAH        CLOUDY    55  50  83 S8        29.79R
WAYNE          PTCLDY    56  51  81 S18       29.74S
$$

NEZ050>053-065>068-078-088>093-200400-
SOUTHEAST NEBRASKA

CITY           SKY/WX    TMP DP  RH WIND       PRES   REMARKS
LINCOLN        CLOUDY    55  51  86 S14       29.81F
OMAHA EPPLEY   PTCLDY    62  52  69 S14       29.82R
BEATRICE       PTCLDY    56  53  88 S16       29.84R
FALLS CITY     PTCLDY    58  53  84 S10       29.86R
NEBRASKA CITY  PTCLDY    57  51  79 S15       29.84S
PLATTSMOUTH    CLOUDY    57  50  77 S9        29.84S
$$

NEZ044-045-051>053-067-200400-
OMAHA AREA

CITY           SKY/WX    TMP DP  RH WIND       PRES   REMARKS
OMAHA EPPLEY   PTCLDY    62  52  69 S14       29.82R
BLAIR          PTCLDY    59  53  79 S17       29.82R
FREMONT        MOCLDY    58  51  78 S15G22    29.81S
MILLARD        CLOUDY    61  55  79 SE9       29.83R
OFFUTT AFB     PTCLDY    59  57  93 S8        29.83R
PLATTSMOUTH    CLOUDY    57  50  77 S9        29.84S
WAHOO          FAIR      55  50  82 S16G22    29.80F
$$




USA.gov is the U.S. government's official web portal to all federal, state and local government web resources and services.